Location: Azul
(36.7830°S, 59.8500°W)
Time: 09:19:19
(UTC-03:00)

NOAA 19 - Pass Details

Date: 26 October 2021
Orbit: 840 x 861 km, 99.2° (Epoch: 07 December)

Event Time Altitude Azimuth Distance (km) Brightness Sun altitude
Rises 21:13:34 0° 175° (S) 3,473 8.8 -20.1°
Reaches altitude 10° 21:16:06 10° 183° (S) 2,530 8.2 -20.5°
Maximum altitude 21:21:16 39° 249° (WSW) 1,285 6.7 -21.4°
Drops below altitude 10° 21:26:22 10° 316° (NW) 2,499 7.7 -22.2°
Sets 21:28:52 0° 323° (NW) 3,426 8.4 -22.6°
